SCP
2 3 4 4 3 3 3 3 3 4 4 3 3 3 3 2 2 1 1 1 0 0 0 0 0 0 0 0 0 0 0 1 0 0 0 0 0 0 0 0 0 0 0
2 3 4 4 4 3 3 3 3 4 4 4 4 4 3 3 2 1 1 1 0 0 0 0 0 0 0 0 0 0 0 0 0 0 0 0 0 0 0 0 0 0 0
2 3 4 5 4 4 3 3 4 4 4 4 4 4 4 3 2 1 1 1 0 0 0 0 1 0 0 0 0 0 0 0 0 0 0 0 0 0 0 0 0 0 0
2 3 4 5 5 4 4 4 4 4 4 4 4 3 3 3 2 1 1 1 0 0 0 1 1 0 0 0 0 0 0 0 0 0 0 0 0 0 1 1 0 0 0
2 3 4 5 5 5 4 4 4 4 4 4 4 3 3 3 2 1 1 1 1 0 0 1 1 0 0 0 0 0 0 0 0 0 0 0 0 0 1 1 1 1 1
3 3 4 5 5 5 4 4 4 4 4 4 4 3 3 3 2 1 1 1 1 1 1 1 0 0 0 0 0 0 0 0 0 0 0 0 0 0 1 1 1 1 1
3 4 4 5 5 5 5 4 4 4 4 4 4 3 3 3 2 2 1 1 1 1 1 1 0 0 0 0 0 0 0 0 0 0 0 0 0 0 1 1 1 1 1
3 4 4 5 6 6 5 4 4 4 4 4 4 3 3 3 2 2 1 1 1 1 1 1 0 0 0 0 0 0 0 0 0 0 0 0 0 0 1 1 1 1 1
3 3 4 5 6 6 6 5 4 4 4 4 3 3 3 3 2 2 2 1 1 1 1 1 0 0 0 0 0 0 0 0 0 0 0 0 0 0 1 1 1 1 1
3 4 4 4 5 5 5 5 4 4 4 3 3 3 2 2 2 2 2 1 1 1 1 1 1 0 0 0 0 0 0 0 0 0 0 0 0 0 0 1 1 1 1
4 4 4 4 4 5 5 5 4 4 4 3 3 3 2 2 2 2 1 1 1 1 1 1 1 1 0 0 0 0 0 0 0 0 0 0 0 0 0 0 0 1 1
3 3 4 4 5 5 5 5 5 4 4 4 3 3 3 2 2 2 1 1 1 1 1 1 1 1 0 0 0 0 0 0 0 0 0 0 0 0 0 0 0 0 0
2 2 3 4 5 5 6 5 5 5 4 4 4 3 3 3 2 2 1 1 1 1 1 1 1 0 0 0 0 0 0 0 0 0 0 0 0 0 0 0 0 0 0
1 1 2 3 5 6 6 6 6 5 4 4 4 4 3 3 2 2 1 1 1 1 1 1 1 0 0 0 0 0 0 0 0 0 0 0 0 0 0 0 0 0 0
1 1 1 3 4 6 6 6 6 5 5 4 4 4 3 3 3 2 1 1 1 1 1 1 1 1 0 0 0 0 0 0 0 0 0 0 0 0 0 0 0 0 1
1 1 1 3 4 6 6 6 6 6 5 4 3 3 3 3 3 2 2 1 1 1 1 1 1 1 0 0 0 0 0 0 0 0 0 0 0 0 0 0 0 0 1
0 1 1 2 4 5 5 5 6 6 5 4 3 3 2 3 3 2 2 2 1 1 1 1 1 1 1 0 0 0 0 0 0 0 0 0 0 0 0 0 0 0 1
0 0 1 1 3 4 4 4 5 5 5 5 3 2 2 2 2 2 2 2 1 1 1 1 1 1 1 0 0 0 0 0 0 0 0 0 0 0 0 0 0 0 1
0 0 0 1 1 2 2 2 3 4 5 5 3 2 2 1 2 2 2 2 2 1 1 1 2 2 1 1 0 0 0 0 0 0 0 0 0 0 0 0 0 0 0
0 0 0 0 1 1 1 1 1 2 4 4 3 2 1 1 1 2 2 2 2 1 1 1 2 2 1 1 0 0 0 0 0 0 0 0 0 0 0 0 0 0 0
0 0 0 0 0 1 1 1 1 1 1 2 2 2 1 1 1 2 2 2 2 1 1 1 1 2 1 1 0 0 0 0 0 0 0 0 0 0 0 0 0 0 0
0 0 0 0 0 1 1 1 1 1 1 1 1 1 1 1 1 1 2 2 2 1 1 1 1 1 1 1 0 0 0 0 0 0 0 0 0 0 0 0 0 0 0
0 0 0 0 0 0 1 1 1 1 1 0 1 1 1 1 1 1 1 1 1 1 1 1 1 1 1 1 0 0 0 0 0 0 0 0 0 0 0 0 0 0 0
0 0 0 0 0 0 0 1 1 1 1 0 0 0 1 1 1 1 1 1 1 1 0 0 1 1 1 1 0 0 0 0 0 0 0 0 0 0 0 0 0 0 0
0 0 0 0 0 0 0 0 0 1 0 0 0 0 0 1 1 1 1 1 1 1 0 0 0 0 1 0 0 0 0 0 0 0 0 0 0 0 0 0 0 0 0
0 0 0 0 0 0 0 0 0 0 0 0 0 0 0 1 1 1 1 1 1 1 0 0 0 0 0 0 0 0 0 0 0 0 0 0 0 0 0 0 0 0 0
Wind_Speed
1 1 2 2 3 4 5 6 8 9 9 10 11 11 11 11 12 11 11 11 11 11 12 12 13 13 13 13 13 13 13 13 13 13 13 13 13 13 13 13 11 8 13
2 2 2 3 4 5 5 6 7 8 9 10 10 10 11 11 11 11 11 11 11 11 11 11 12 12 13 13 12 12 13 13 13 13 12 11 12 12 12 12 11 8 13
2 2 3 3 4 5 5 5 6 8 9 9 9 10 10 10 11 11 11 10 10 10 10 11 11 11 12 12 12 12 12 12 12 12 10 5 6 11 11 11 11 11 12
2 1 2 3 4 5 6 5 6 7 8 9 9 9 9 10 10 11 10 10 9 9 10 10 11 11 11 11 11 11 11 11 11 10 5 4 4 9 10 10 10 11 11
2 1 2 4 5 5 5 5 5 6 8 9 9 9 9 9 9 10 10 10 10 9 10 10 10 10 10 10 10 10 10 10 10 7 4 4 3 7 9 9 10 10 10
2 1 2 4 5 5 5 5 5 6 8 8 9 9 9 9 9 9 9 9 9 9 9 9 9 9 9 9 10 10 10 9 8 4 4 3 3 6 8 8 8 8 9
2 1 2 3 4 4 4 5 4 5 7 8 8 8 8 8 9 9 9 9 9 9 9 9 9 8 8 9 9 9 9 9 5 4 3 3 3 6 7 7 7 6 7
2 2 2 3 3 4 4 4 4 5 6 7 8 8 8 8 8 8 8 8 8 8 8 8 8 8 8 8 8 8 8 7 5 4 3 2 3 5 6 6 5 5 5
2 2 2 2 2 3 3 3 4 4 5 6 7 7 7 8 8 8 8 8 8 8 8 8 8 8 8 8 8 7 7 7 4 2 2 2 3 4 5 5 5 5 5
3 2 2 2 2 1 1 3 3 3 5 5 6 6 7 7 7 7 7 7 8 8 8 8 8 8 7 7 7 7 7 5 3 2 1 1 3 3 4 4 4 4 4
3 2 2 2 2 1 1 2 3 3 4 4 4 6 6 3 4 4 5 7 7 7 8 8 8 8 7 6 6 6 5 2 2 1 1 1 2 2 2 2 2 2 3
1 2 2 1 1 1 1 2 1 2 2 3 2 3 3 3 3 4 5 6 7 7 7 8 8 7 5 3 4 5 2 2 2 1 0 1 1 1 1 1 1 1 1
1 2 2 1 1 1 1 1 1 1 1 2 2 3 3 3 3 3 2 3 3 5 3 4 4 3 2 2 2 2 2 1 1 1 1 1 1 0 1 1 1 0 1
1 2 2 1 1 1 1 1 1 1 1 2 2 3 3 2 2 2 2 2 2 2 2 2 2 2 2 2 2 2 1 1 1 0 1 1 1 1 0 1 1 1 2
1 2 2 1 0 1 1 1 2 2 2 2 2 2 3 3 3 2 2 2 2 2 2 2 2 2 2 2 1 2 1 1 1 0 1 1 1 1 1 2 2 2 3
1 1 1 1 0 1 2 1 2 1 1 2 2 2 3 3 3 3 2 2 2 2 1 1 2 2 1 1 1 1 0 1 1 0 1 2 3 2 3 3 3 3 4
1 2 1 0 1 1 2 2 2 2 2 1 1 2 2 2 3 3 3 2 1 2 2 2 2 1 1 1 1 0 0 0 0 0 1 1 2 3 4 4 4 4 4
1 1 1 1 1 1 2 2 2 2 2 1 1 2 2 3 3 3 3 2 2 2 2 2 2 1 1 1 0 0 0 0 0 0 1 1 1 2 3 5 5 4 5
1 1 1 1 1 1 2 2 2 2 2 1 1 1 2 2 3 3 2 2 2 2 2 2 1 1 1 0 0 0 0 0 0 0 1 1 1 2 2 4 5 5 6
2 2 1 1 1 2 2 2 2 2 2 1 1 1 2 2 3 3 2 2 3 2 2 2 2 1 1 0 0 1 1 1 0 0 1 1 1 2 2 2 2 4 6
3 3 2 2 1 2 1 1 1 1 1 1 1 2 2 2 2 3 2 2 2 3 2 2 1 2 1 1 1 1 1 1 0 0 0 0 1 2 1 2 1 2 3
1 2 1 1 2 1 1 1 1 1 1 1 1 2 2 2 1 2 3 2 2 2 2 2 2 2 1 1 1 1 1 2 2 1 1 0 1 1 2 2 2 2 2
1 1 1 1 1 1 1 2 2 2 2 1 1 1 2 2 1 2 2 2 2 2 2 2 3 3 2 1 1 2 2 2 2 2 1 1 1 1 2 2 2 2 2
2 1 1 1 1 1 2 2 2 2 1 0 0 1 1 1 2 1 2 2 2 1 1 2 2 1 3 2 1 0 1 2 1 2 2 1 2 2 2 2 2 2 2
1 0 1 2 2 2 2 2 2 2 1 1 1 2 1 1 1 1 1 2 1 1 1 1 1 2 2 2 2 1 1 0 1 1 2 2 2 2 2 2 2 2 2
1 1 1 2 2 2 2 2 2 2 1 2 2 1 1 0 0 1 1 1 1 1 1 2 2 2 2 2 1 2 2 2 2 2 2 2 3 3 2 2 2 1 1
Wind_Direction
259 260 205 133 120 114 102 107 114 116 115 112 114 116 116 114 112 110 106 104 102 99 97 96 95 92 90 88 86 84 82 79 78 77 77 77 81 85 86 83 80 78 84
184 192 167 131 131 119 110 102 114 120 116 113 113 114 116 116 114 112 109 106 103 101 99 98 97 94 92 90 88 87 84 82 79 76 73 74 78 85 88 87 86 86 85
114 154 150 128 128 122 111 105 113 123 120 115 113 113 117 116 115 111 111 109 106 103 103 102 100 96 94 92 90 89 87 84 81 77 70 58 71 83 88 88 89 87 86
108 107 125 120 121 126 118 110 112 125 126 121 117 114 114 116 114 111 111 110 108 106 106 104 102 99 97 95 92 90 90 87 81 73 58 49 59 83 86 87 87 88 87
97 94 109 108 113 122 124 115 116 126 132 127 124 120 115 114 116 114 112 110 108 108 107 105 103 101 99 98 94 92 89 84 77 66 54 48 55 83 84 84 84 85 88
84 84 117 111 114 114 124 120 119 130 135 132 128 125 121 115 119 118 115 111 109 107 106 105 104 103 101 99 98 95 92 86 73 60 55 50 57 85 87 85 84 83 87
94 80 110 111 113 116 122 126 121 131 134 135 133 130 127 120 116 117 115 114 113 112 109 107 104 103 103 102 101 98 93 86 75 62 54 49 66 87 88 89 87 87 88
101 75 92 117 109 112 113 118 122 128 129 134 134 130 126 121 118 118 118 117 116 113 110 109 105 106 104 102 101 99 93 85 79 67 51 51 81 88 90 89 90 93 94
72 73 59 85 100 109 108 104 117 121 127 131 134 127 124 119 117 115 113 115 113 110 109 109 106 106 105 102 99 96 90 81 75 70 58 48 82 90 90 89 88 89 90
50 48 48 56 71 83 108 102 101 115 124 124 129 121 117 112 112 110 108 111 109 107 106 108 106 105 103 99 98 94 86 77 69 64 58 63 77 86 84 84 91 97 100
35 22 27 40 52 58 83 99 93 103 110 110 122 119 114 104 105 107 102 106 107 104 102 102 101 97 94 93 92 89 80 72 72 57 52 76 90 101 92 83 90 107 111
353 346 8 34 49 53 80 89 89 88 95 96 108 118 106 101 98 98 98 102 103 100 98 98 96 90 79 75 79 75 74 75 69 40 19 60 83 109 139 120 87 115 134
322 337 338 5 37 81 95 98 89 90 98 98 101 113 112 103 98 91 99 92 89 86 83 85 81 75 73 72 73 74 77 75 63 15 358 10 19 97 168 174 159 196 203
18 335 336 3 40 85 99 110 110 113 113 106 124 116 124 117 108 105 98 92 83 79 81 77 84 82 78 75 83 87 84 85 76 28 351 6 348 27 323 275 251 240 243
16 328 330 342 122 111 107 114 116 121 112 110 118 118 126 130 129 124 113 103 96 95 99 94 91 94 92 80 74 83 91 94 88 53 332 3 4 335 300 293 292 264 258
317 310 317 298 161 120 130 134 126 113 100 109 118 120 121 133 137 136 130 119 112 113 112 120 117 111 109 99 79 79 97 108 108 90 15 356 3 346 312 292 293 294 279
314 325 313 242 126 121 131 125 112 103 100 117 131 126 121 124 144 146 138 129 127 117 111 112 98 99 98 88 76 31 76 121 88 75 37 10 343 346 332 311 300 292 290
345 338 330 28 89 116 119 114 108 106 103 107 128 130 128 127 129 143 138 140 133 120 116 119 108 102 91 88 39 290 315 324 37 46 38 15 357 347 336 332 322 311 297
352 356 3 38 97 106 102 90 102 118 113 104 101 123 135 130 127 127 143 139 136 125 117 122 95 109 123 97 250 359 349 301 283 11 9 350 352 346 335 332 329 325 316
14 32 43 54 74 90 95 95 81 81 93 92 104 98 116 132 131 123 119 138 137 127 116 118 119 83 111 162 110 29 343 313 323 339 285 324 346 339 332 329 329 324 325
25 35 39 46 44 75 80 92 92 85 67 77 109 93 94 110 125 123 118 130 144 149 154 140 129 106 64 48 75 22 343 328 308 310 309 322 337 330 332 333 329 322 323
11 21 34 41 48 41 58 108 114 125 114 73 66 90 92 92 121 131 127 134 139 148 143 140 129 127 106 84 100 85 336 324 319 316 325 299 315 325 315 319 310 316 317
346 339 8 14 54 50 54 74 81 79 66 46 21 58 74 102 110 121 133 140 137 143 158 169 168 158 165 194 123 137 154 238 299 306 300 321 334 310 302 313 312 311 312
270 294 27 33 48 54 68 80 92 109 119 171 85 47 51 82 92 95 121 138 147 149 150 177 170 170 162 179 204 62 140 153 172 291 303 313 309 289 286 302 293 293 300
242 66 54 52 47 45 62 80 90 86 108 83 62 65 41 49 69 80 125 127 140 156 165 174 172 164 168 174 171 159 138 77 146 188 272 304 314 288 283 276 268 282 290
93 75 65 68 50 44 54 60 77 95 91 94 78 71 28 355 69 50 87 130 145 159 188 197 190 177 181 173 172 172 169 173 198 192 234 281 287 285 287 273 259 275 295